Location: Sydney
(46.1500°N, 60.1670°W)
Time: 18:56:31
(UTC-04:00)

Iridium 90 - Visible Passes

Search period start: 27 November 2014 00:00
Search period end: 07 December 2014 00:00
Orbit: 747 x 750 km, 86.4° (Epoch: 27 November)

Date Brightness Start Highest point End Pass type
(mag) Time Alt. Az. Time Alt. Az. Time Alt. Az.
29 Nov 8.4 06:41:16 10° NE 06:42:24 11° ENE 06:43:31 10° E visible
04 Dec 8.1 06:29:31 10° NE 06:32:31 16° ENE 06:35:30 10° ESE visible
06 Dec 7.6 06:44:32 10° NNE 06:48:47 26° ENE 06:53:00 10° SE visible
